SCP
0 0 -0 -0 -0 -0 -0 -0 -0 -0 -0 -0 -0 -0 -0 -0 -0 -0 -0 -0 -0 -0 -0 -0 -0 -0 -0 -0 -0 -0 -0 -0 -0 -0 0 0 0 0 -0 -0 -0 -0 0
0 0 -0 -0 -0 -0 -0 -0 -0 -0 -0 -0 -0 -0 -0 -0 -0 -0 -0 -0 -0 -0 -0 -0 -0 -0 -0 0 0 0 0 -0 -0 0 -0 -0 0 -0 -0 -0 -0 -0 0
-0 0 0 -0 -0 -0 -0 -0 -0 -0 -0 -0 -0 -0 -0 -0 -0 -0 -0 -0 -0 -0 -0 -0 -0 -0 -0 0 0 0 -0 0 0 -0 -0 -0 -0 -0 -0 -0 -0 0 0
-0 0 0 -0 -0 -0 -0 -0 -0 -0 -0 -0 0 0 -0 -0 -0 -0 -0 -0 -0 -0 -0 -0 -0 -0 -0 0 -0 -0 -0 0 0 0 -0 -0 -0 -0 -0 -0 -0 0 0
0 0 0 -0 -0 -0 -0 -0 -0 -0 -0 -0 0 0 0 0 -0 -0 -0 -0 -0 -0 -0 -0 -0 -0 -0 -0 -0 -0 0 0 0 -0 -0 -0 -0 -0 -0 -0 -0 -0 -0
0 0 0 -0 -0 -0 -0 -0 -0 -0 -0 -0 0 0 0 0 0 -0 -0 -0 0 0 -0 0 0 0 0 0 0 0 0 0 -0 -0 -0 -0 -0 -0 -0 -0 -0 -0 -0
0 0 0 0 -0 -0 -0 -0 -0 -0 -0 -0 -0 0 0 0 0 0 -0 0 0 0 0 0 0 0 0 0 0 0 0 0 -0 -0 -0 -0 -0 -0 0 -0 -0 -0 -0
0 0 0 0 0 -0 -0 -0 -0 -0 -0 -0 0 -0 0 0 0 0 0 0 0 0 0 0 0 0 0 0 0 0 -0 -0 -0 -0 -0 -0 -0 0 0 0 0 -0 0
0 0 0 0 0 0 0 0 0 0 0 0 0 0 0 0 0 0 0 0 0 0 0 0 0 -0 -0 -0 -0 -0 -0 -0 -0 -0 0 0 -0 0 0 0 0 0 0
0 0 0 0 0 0 0 0 0 0 0 0 0 0 0 0 0 0 0 0 0 0 -0 -0 -0 -0 -0 -0 -0 -0 -0 -0 0 -0 0 0 0 0 0 0 0 0 0
0 0 0 0 0 0 0 0 0 0 0 0 0 0 0 0 0 0 0 0 0 0 -0 -0 -0 -0 -0 -0 -0 -0 -0 -0 0 0 0 0 0 0 0 0 0 0 0
0 0 0 0 0 0 0 0 0 0 0 0 0 0 0 0 0 0 0 -0 0 -0 -0 -0 -0 -0 -0 -0 -0 -0 0 0 0 0 0 0 0 0 0 0 0 0 0
0 0 0 0 0 0 0 0 0 0 0 0 0 0 0 0 0 0 0 0 0 -0 0 -0 -0 -0 -0 -0 -0 0 0 0 0 0 0 0 0 0 0 0 0 0 0
0 0 0 0 0 0 0 0 0 0 0 0 0 0 0 0 0 0 0 0 0 0 0 0 0 0 0 0 0 0 0 0 0 0 0 0 0 0 0 0 0 0 0
0 0 0 0 0 0 0 0 0 0 0 0 0 0 0 0 0 0 0 0 0 0 0 0 0 0 0 0 0 0 0 0 0 0 0 0 0 0 0 0 0 0 0
0 0 0 0 0 0 0 0 0 0 0 0 0 0 0 0 0 0 0 0 0 0 0 0 0 0 0 0 0 0 0 0 0 0 0 0 0 0 0 0 0 0 0
0 0 0 0 0 0 0 0 0 0 0 0 0 0 0 0 0 0 0 0 0 0 0 0 0 0 0 0 0 0 0 0 0 0 0 0 0 0 0 0 0 0 0
0 0 0 0 0 0 0 0 0 0 0 0 0 0 0 0 0 0 0 0 0 0 0 0 0 0 0 0 0 0 0 0 0 0 0 0 0 0 0 0 0 0 0
0 0 0 0 0 0 0 0 0 0 0 0 0 0 0 0 0 0 0 0 0 0 0 0 0 0 0 0 0 0 0 0 0 0 0 0 0 0 0 0 0 0 0
0 0 0 0 0 0 0 0 0 0 0 0 0 0 0 0 0 0 0 0 0 0 0 0 0 0 0 0 0 0 0 0 0 0 0 0 0 0 0 0 0 0 0
0 0 0 0 0 0 0 0 0 0 0 0 0 0 0 0 0 0 0 0 0 0 0 0 0 0 0 0 0 0 0 0 0 0 0 0 0 0 0 0 0 0 0
0 0 0 0 0 0 0 0 0 0 0 0 0 0 0 0 0 0 0 0 0 0 0 0 0 0 0 0 0 0 0 0 0 0 0 0 0 0 0 0 0 0 0
0 0 0 0 0 0 0 0 0 0 0 0 0 0 0 0 0 0 0 0 0 0 0 0 0 0 0 0 0 0 0 0 0 0 0 0 0 0 0 0 0 0 0
0 0 0 0 0 0 0 0 0 0 0 0 0 0 0 0 0 0 0 0 0 0 0 0 0 0 0 0 0 0 0 0 0 0 0 0 0 0 0 0 0 0 0
0 0 0 0 0 0 0 0 0 0 0 0 0 0 0 0 0 0 0 0 0 0 0 0 0 0 0 0 0 0 0 0 0 0 0 0 0 0 0 0 0 0 0
0 0 0 0 0 0 0 0 0 0 0 0 0 0 0 0 0 0 0 0 0 0 0 0 0 0 0 0 0 0 0 0 0 0 0 0 0 0 0 0 0 0 0
Wind_Speed_500mb
41 37 41 41 36 35 31 39 37 37 33 41 40 38 37 42 34 30 22 16 11 8 7 11 19 21 24 26 27 30 31 32 33 33 33 34 34 34 36 35 33 37 32
42 41 44 43 36 34 32 35 37 36 37 38 37 34 32 28 25 21 16 10 9 14 20 24 25 24 24 25 24 25 29 32 32 30 29 30 32 31 29 33 32 33 26
44 44 46 43 38 32 36 37 33 36 36 34 33 31 28 23 19 15 12 10 10 22 26 24 23 24 23 22 28 28 28 31 30 28 26 27 28 29 28 29 29 28 30
43 45 49 44 40 33 38 35 29 29 28 29 31 31 29 25 19 17 15 18 19 24 22 23 22 21 19 20 23 25 25 26 27 26 24 24 25 25 25 25 25 26 27
42 46 48 45 42 37 38 34 26 22 18 18 21 26 26 25 20 14 19 26 30 22 18 22 21 18 16 15 17 19 21 23 24 22 21 21 21 22 21 21 21 22 23
45 47 47 43 42 41 38 31 24 19 12 12 19 23 23 27 28 18 21 24 24 20 21 22 20 17 14 12 12 13 15 17 18 18 18 18 17 18 17 17 17 17 18
46 48 45 42 42 41 39 31 23 16 9 8 12 18 27 25 24 21 16 17 18 15 17 18 17 15 12 10 8 8 10 12 12 13 14 14 14 15 14 14 13 13 13
44 49 46 44 41 40 38 31 24 15 10 2 7 14 19 18 23 22 18 14 14 14 13 13 12 11 9 6 4 3 5 7 8 8 9 10 10 11 11 11 9 9 9
44 47 48 46 42 38 37 33 25 16 10 8 7 12 15 16 14 16 14 13 13 12 10 9 8 7 5 4 3 2 1 3 5 6 5 5 6 7 6 7 8 8 7
46 47 49 47 45 41 38 34 27 21 15 13 12 13 15 14 13 11 10 8 7 8 6 6 7 6 6 6 5 7 6 7 7 6 6 7 6 7 9 10 10 10 10
49 48 48 47 46 42 40 37 31 25 19 14 14 15 15 15 14 14 10 10 8 8 7 7 8 9 10 10 10 11 10 11 10 10 10 11 10 10 10 12 13 14 14
58 55 50 47 44 43 41 39 34 29 22 16 16 13 12 15 15 15 14 11 9 8 9 9 10 11 11 12 12 12 11 12 14 16 15 15 14 15 15 16 17 18 18
59 56 54 48 44 42 40 37 35 30 24 19 18 16 14 14 18 18 16 14 12 10 9 11 11 12 15 15 14 14 16 18 20 21 21 20 19 20 20 21 21 22 22
57 52 51 50 46 42 38 36 33 30 26 25 21 20 21 20 20 19 17 16 15 14 15 17 16 18 18 19 20 21 23 24 24 23 23 23 23 24 25 25 25 25 25
55 50 46 50 48 43 41 37 35 32 29 23 23 23 25 26 24 24 22 20 18 19 17 18 19 20 23 24 25 26 25 25 24 25 25 25 25 25 26 27 28 28 28
52 48 44 50 48 44 42 40 37 34 31 29 27 24 25 25 24 24 21 21 20 20 19 20 21 23 24 26 26 27 26 26 28 29 29 28 28 30 31 32 32 33 33
54 49 47 47 47 46 41 39 38 33 32 32 30 27 27 26 25 24 24 23 19 20 22 24 23 26 27 28 30 29 32 33 36 34 32 32 30 31 33 35 35 36 36
56 54 48 48 49 47 42 39 39 35 32 30 29 29 28 27 27 26 26 25 22 24 26 29 29 31 32 34 35 35 38 39 37 36 35 34 36 36 38 38 39 39 37
61 56 54 51 51 48 44 39 40 36 37 34 33 32 30 29 29 30 29 26 28 31 32 32 33 36 37 40 44 45 44 44 43 44 43 42 40 42 44 45 45 45 41
68 61 56 53 50 47 44 41 39 38 40 41 40 39 34 32 32 33 34 32 32 38 40 39 40 40 44 46 50 49 49 49 50 49 46 43 43 43 44 47 47 45 42
72 70 67 62 57 53 51 50 48 52 49 48 47 44 42 40 38 39 39 38 38 42 44 44 47 49 49 49 50 53 55 54 50 46 41 39 40 40 43 41 41 47 38
78 75 68 70 66 60 57 52 53 52 52 49 47 47 46 45 42 45 45 43 40 42 44 47 50 56 58 54 51 46 42 54 42 27 30 35 35 36 38 39 38 38 37
65 77 77 69 64 64 62 57 58 59 60 57 54 54 51 48 45 45 47 49 46 46 48 47 51 55 61 65 60 48 23 19 47 40 37 48 40 38 39 40 40 38 37
61 60 69 74 67 63 65 65 63 60 63 65 60 56 53 46 47 44 47 51 55 52 58 56 55 56 61 68 70 71 69 67 55 47 45 45 49 47 49 49 49 46 42
67 63 57 62 64 61 60 57 58 58 54 54 59 63 60 54 52 49 50 51 52 55 57 62 64 65 69 73 75 78 79 76 71 75 70 77 73 60 57 56 56 56 54
58 59 59 59 58 54 55 46 47 49 52 53 49 47 50 53 54 49 45 48 52 54 57 58 62 68 72 78 80 82 85 77 73 74 76 76 82 81 77 70 67 68 68
Wind_Direction_500mb
177 175 163 165 164 159 151 147 143 143 135 141 142 143 138 132 130 128 128 136 139 151 154 113 107 99 93 89 87 82 79 82 78 76 78 77 78 80 78 79 89 69 76
161 170 162 165 164 161 152 149 153 152 150 148 148 148 155 149 147 144 146 143 159 132 124 105 103 101 97 89 84 86 81 79 78 74 73 78 78 79 79 76 78 86 74
164 164 162 161 164 164 156 156 156 159 162 161 162 166 166 170 172 174 173 180 150 110 103 104 104 104 97 84 82 82 81 77 74 72 69 72 75 75 74 72 75 76 75
164 163 159 162 163 167 160 162 160 164 172 178 181 183 185 186 187 193 178 142 114 103 110 108 109 106 100 82 69 73 80 78 74 70 68 66 70 71 70 71 72 73 72
167 162 164 163 166 163 159 165 166 167 180 187 188 186 183 180 168 177 154 126 122 124 127 120 114 115 111 91 66 61 71 76 72 69 66 64 66 68 67 67 68 68 70
166 163 165 165 165 163 162 165 165 162 153 184 180 168 158 154 153 155 140 143 144 144 119 124 121 120 117 103 77 65 67 69 65 67 65 62 58 59 59 60 61 62 64
165 164 164 165 165 167 167 166 171 168 150 156 187 171 155 154 150 146 147 154 163 140 130 126 127 124 123 118 97 71 63 65 62 61 61 57 51 50 47 44 46 47 51
168 166 165 167 169 172 173 174 181 182 177 201 204 180 178 167 162 159 158 152 148 143 138 135 132 130 132 128 114 83 35 46 48 48 55 53 46 42 35 29 26 27 24
173 170 171 171 174 177 180 182 191 199 215 257 252 209 183 179 182 177 171 148 148 157 159 153 152 154 163 172 194 258 307 340 18 23 10 20 20 13 13 1 351 350 349
179 176 177 178 181 184 186 192 198 207 225 260 253 223 193 190 196 196 176 174 175 181 183 184 189 198 213 227 240 273 294 300 308 330 324 320 326 336 335 330 325 320 314
188 186 183 185 187 190 191 194 203 215 229 241 231 205 199 205 201 202 205 193 202 207 215 223 227 235 242 249 257 267 285 289 290 303 302 289 288 293 301 301 302 305 303
189 190 191 192 191 193 198 202 209 219 222 228 222 199 194 212 213 210 209 212 211 214 230 244 249 257 265 270 267 280 291 293 295 299 298 291 294 291 294 296 294 294 295
191 193 193 197 199 202 203 208 215 221 221 225 222 218 212 217 224 231 231 233 236 243 255 262 271 276 280 277 271 283 288 294 295 296 295 292 292 289 287 288 290 290 290
193 195 197 199 205 208 210 215 220 223 223 224 229 231 230 231 239 240 245 250 252 263 270 273 277 277 281 283 286 287 292 294 296 295 293 293 289 288 286 286 288 290 290
201 203 207 205 206 210 212 215 220 223 227 228 232 237 238 240 243 243 247 251 255 262 275 277 276 281 279 283 285 289 293 296 300 300 300 296 293 291 289 290 290 290 290
207 207 210 209 211 214 216 218 221 225 227 231 233 236 241 247 249 248 247 251 258 264 268 276 281 282 286 287 288 293 298 299 298 297 294 291 290 289 288 288 287 287 287
211 211 211 212 212 215 219 220 222 222 225 232 238 239 242 245 248 250 254 257 260 263 266 270 276 281 286 289 291 292 294 296 294 294 292 285 284 286 287 288 287 284 283
218 215 216 216 219 218 218 219 221 225 229 236 238 239 240 239 242 246 251 257 262 263 266 269 275 279 284 287 292 294 293 292 291 289 286 283 282 283 281 281 280 279 283
225 222 220 221 223 222 223 224 229 231 237 237 238 238 241 247 248 254 259 265 267 269 271 274 277 283 289 291 291 289 287 287 288 287 288 289 286 282 278 275 272 272 274
228 228 227 227 228 227 230 232 238 241 244 245 242 243 245 246 251 257 261 263 267 270 272 276 282 285 289 293 288 288 285 285 285 285 289 291 288 283 283 282 276 275 276
228 228 230 228 231 228 225 228 230 237 239 245 247 248 246 248 254 258 261 264 267 271 277 278 280 281 284 291 293 297 300 299 298 295 291 287 281 277 275 283 281 280 279
225 228 229 231 232 232 232 238 240 242 244 247 250 252 254 253 253 260 262 263 263 268 275 278 279 282 284 282 282 292 306 302 314 318 302 294 290 280 279 281 284 288 287
224 225 229 229 232 233 237 242 244 245 250 251 251 256 255 262 262 260 265 268 269 269 271 274 278 279 282 285 279 269 274 273 297 307 298 298 294 287 285 282 286 291 280
221 224 227 231 236 237 241 246 249 251 253 258 263 265 269 270 271 275 277 273 273 273 275 277 279 280 281 280 281 277 270 269 278 294 288 283 283 280 280 275 281 290 285
217 218 218 220 228 229 233 243 246 250 256 264 268 268 269 274 276 274 274 275 277 280 281 281 283 283 281 280 277 279 280 278 274 268 275 283 286 283 280 277 274 275 277
218 220 220 220 224 229 234 229 241 248 255 262 272 272 271 276 279 282 282 283 284 285 285 288 288 287 287 283 282 279 274 269 274 275 271 274 278 285 287 283 278 275 277
Wind_Speed_850mb
41 37 41 41 36 35 31 39 37 37 33 41 40 38 37 42 34 30 22 16 11 8 7 11 19 21 24 26 27 30 31 32 33 33 33 34 34 34 36 35 33 37 32
42 41 44 43 36 34 32 35 37 36 37 38 37 34 32 28 25 21 16 10 9 14 20 24 25 24 24 25 24 25 29 32 32 30 29 30 32 31 29 33 32 33 26
44 44 46 43 38 32 36 37 33 36 36 34 33 31 28 23 19 15 12 10 10 22 26 24 23 24 23 22 28 28 28 31 30 28 26 27 28 29 28 29 29 28 30
43 45 49 44 40 33 38 35 29 29 28 29 31 31 29 25 19 17 15 18 19 24 22 23 22 21 19 20 23 25 25 26 27 26 24 24 25 25 25 25 25 26 27
42 46 48 45 42 37 38 34 26 22 18 18 21 26 26 25 20 14 19 26 30 22 18 22 21 18 16 15 17 19 21 23 24 22 21 21 21 22 21 21 21 22 23
45 47 47 43 42 41 38 31 24 19 12 12 19 23 23 27 28 18 21 24 24 20 21 22 20 17 14 12 12 13 15 17 18 18 18 18 17 18 17 17 17 17 18
46 48 45 42 42 41 39 31 23 16 9 8 12 18 27 25 24 21 16 17 18 15 17 18 17 15 12 10 8 8 10 12 12 13 14 14 14 15 14 14 13 13 13
44 49 46 44 41 40 38 31 24 15 10 2 7 14 19 18 23 22 18 14 14 14 13 13 12 11 9 6 4 3 5 7 8 8 9 10 10 11 11 11 9 9 9
44 47 48 46 42 38 37 33 25 16 10 8 7 12 15 16 14 16 14 13 13 12 10 9 8 7 5 4 3 2 1 3 5 6 5 5 6 7 6 7 8 8 7
46 47 49 47 45 41 38 34 27 21 15 13 12 13 15 14 13 11 10 8 7 8 6 6 7 6 6 6 5 7 6 7 7 6 6 7 6 7 9 10 10 10 10
49 48 48 47 46 42 40 37 31 25 19 14 14 15 15 15 14 14 10 10 8 8 7 7 8 9 10 10 10 11 10 11 10 10 10 11 10 10 10 12 13 14 14
58 55 50 47 44 43 41 39 34 29 22 16 16 13 12 15 15 15 14 11 9 8 9 9 10 11 11 12 12 12 11 12 14 16 15 15 14 15 15 16 17 18 18
59 56 54 48 44 42 40 37 35 30 24 19 18 16 14 14 18 18 16 14 12 10 9 11 11 12 15 15 14 14 16 18 20 21 21 20 19 20 20 21 21 22 22
57 52 51 50 46 42 38 36 33 30 26 25 21 20 21 20 20 19 17 16 15 14 15 17 16 18 18 19 20 21 23 24 24 23 23 23 23 24 25 25 25 25 25
55 50 46 50 48 43 41 37 35 32 29 23 23 23 25 26 24 24 22 20 18 19 17 18 19 20 23 24 25 26 25 25 24 25 25 25 25 25 26 27 28 28 28
52 48 44 50 48 44 42 40 37 34 31 29 27 24 25 25 24 24 21 21 20 20 19 20 21 23 24 26 26 27 26 26 28 29 29 28 28 30 31 32 32 33 33
54 49 47 47 47 46 41 39 38 33 32 32 30 27 27 26 25 24 24 23 19 20 22 24 23 26 27 28 30 29 32 33 36 34 32 32 30 31 33 35 35 36 36
56 54 48 48 49 47 42 39 39 35 32 30 29 29 28 27 27 26 26 25 22 24 26 29 29 31 32 34 35 35 38 39 37 36 35 34 36 36 38 38 39 39 37
61 56 54 51 51 48 44 39 40 36 37 34 33 32 30 29 29 30 29 26 28 31 32 32 33 36 37 40 44 45 44 44 43 44 43 42 40 42 44 45 45 45 41
68 61 56 53 50 47 44 41 39 38 40 41 40 39 34 32 32 33 34 32 32 38 40 39 40 40 44 46 50 49 49 49 50 49 46 43 43 43 44 47 47 45 42
72 70 67 62 57 53 51 50 48 52 49 48 47 44 42 40 38 39 39 38 38 42 44 44 47 49 49 49 50 53 55 54 50 46 41 39 40 40 43 41 41 47 38
78 75 68 70 66 60 57 52 53 52 52 49 47 47 46 45 42 45 45 43 40 42 44 47 50 56 58 54 51 46 42 54 42 27 30 35 35 36 38 39 38 38 37
65 77 77 69 64 64 62 57 58 59 60 57 54 54 51 48 45 45 47 49 46 46 48 47 51 55 61 65 60 48 23 19 47 40 37 48 40 38 39 40 40 38 37
61 60 69 74 67 63 65 65 63 60 63 65 60 56 53 46 47 44 47 51 55 52 58 56 55 56 61 68 70 71 69 67 55 47 45 45 49 47 49 49 49 46 42
67 63 57 62 64 61 60 57 58 58 54 54 59 63 60 54 52 49 50 51 52 55 57 62 64 65 69 73 75 78 79 76 71 75 70 77 73 60 57 56 56 56 54
58 59 59 59 58 54 55 46 47 49 52 53 49 47 50 53 54 49 45 48 52 54 57 58 62 68 72 78 80 82 85 77 73 74 76 76 82 81 77 70 67 68 68
Wind_Direction_850mb
177 175 163 165 164 159 151 147 143 143 135 141 142 143 138 132 130 128 128 136 139 151 154 113 107 99 93 89 87 82 79 82 78 76 78 77 78 80 78 79 89 69 76
161 170 162 165 164 161 152 149 153 152 150 148 148 148 155 149 147 144 146 143 159 132 124 105 103 101 97 89 84 86 81 79 78 74 73 78 78 79 79 76 78 86 74
164 164 162 161 164 164 156 156 156 159 162 161 162 166 166 170 172 174 173 180 150 110 103 104 104 104 97 84 82 82 81 77 74 72 69 72 75 75 74 72 75 76 75
164 163 159 162 163 167 160 162 160 164 172 178 181 183 185 186 187 193 178 142 114 103 110 108 109 106 100 82 69 73 80 78 74 70 68 66 70 71 70 71 72 73 72
167 162 164 163 166 163 159 165 166 167 180 187 188 186 183 180 168 177 154 126 122 124 127 120 114 115 111 91 66 61 71 76 72 69 66 64 66 68 67 67 68 68 70
166 163 165 165 165 163 162 165 165 162 153 184 180 168 158 154 153 155 140 143 144 144 119 124 121 120 117 103 77 65 67 69 65 67 65 62 58 59 59 60 61 62 64
165 164 164 165 165 167 167 166 171 168 150 156 187 171 155 154 150 146 147 154 163 140 130 126 127 124 123 118 97 71 63 65 62 61 61 57 51 50 47 44 46 47 51
168 166 165 167 169 172 173 174 181 182 177 201 204 180 178 167 162 159 158 152 148 143 138 135 132 130 132 128 114 83 35 46 48 48 55 53 46 42 35 29 26 27 24
173 170 171 171 174 177 180 182 191 199 215 257 252 209 183 179 182 177 171 148 148 157 159 153 152 154 163 172 194 258 307 340 18 23 10 20 20 13 13 1 351 350 349
179 176 177 178 181 184 186 192 198 207 225 260 253 223 193 190 196 196 176 174 175 181 183 184 189 198 213 227 240 273 294 300 308 330 324 320 326 336 335 330 325 320 314
188 186 183 185 187 190 191 194 203 215 229 241 231 205 199 205 201 202 205 193 202 207 215 223 227 235 242 249 257 267 285 289 290 303 302 289 288 293 301 301 302 305 303
189 190 191 192 191 193 198 202 209 219 222 228 222 199 194 212 213 210 209 212 211 214 230 244 249 257 265 270 267 280 291 293 295 299 298 291 294 291 294 296 294 294 295
191 193 193 197 199 202 203 208 215 221 221 225 222 218 212 217 224 231 231 233 236 243 255 262 271 276 280 277 271 283 288 294 295 296 295 292 292 289 287 288 290 290 290
193 195 197 199 205 208 210 215 220 223 223 224 229 231 230 231 239 240 245 250 252 263 270 273 277 277 281 283 286 287 292 294 296 295 293 293 289 288 286 286 288 290 290
201 203 207 205 206 210 212 215 220 223 227 228 232 237 238 240 243 243 247 251 255 262 275 277 276 281 279 283 285 289 293 296 300 300 300 296 293 291 289 290 290 290 290
207 207 210 209 211 214 216 218 221 225 227 231 233 236 241 247 249 248 247 251 258 264 268 276 281 282 286 287 288 293 298 299 298 297 294 291 290 289 288 288 287 287 287
211 211 211 212 212 215 219 220 222 222 225 232 238 239 242 245 248 250 254 257 260 263 266 270 276 281 286 289 291 292 294 296 294 294 292 285 284 286 287 288 287 284 283
218 215 216 216 219 218 218 219 221 225 229 236 238 239 240 239 242 246 251 257 262 263 266 269 275 279 284 287 292 294 293 292 291 289 286 283 282 283 281 281 280 279 283
225 222 220 221 223 222 223 224 229 231 237 237 238 238 241 247 248 254 259 265 267 269 271 274 277 283 289 291 291 289 287 287 288 287 288 289 286 282 278 275 272 272 274
228 228 227 227 228 227 230 232 238 241 244 245 242 243 245 246 251 257 261 263 267 270 272 276 282 285 289 293 288 288 285 285 285 285 289 291 288 283 283 282 276 275 276
228 228 230 228 231 228 225 228 230 237 239 245 247 248 246 248 254 258 261 264 267 271 277 278 280 281 284 291 293 297 300 299 298 295 291 287 281 277 275 283 281 280 279
225 228 229 231 232 232 232 238 240 242 244 247 250 252 254 253 253 260 262 263 263 268 275 278 279 282 284 282 282 292 306 302 314 318 302 294 290 280 279 281 284 288 287
224 225 229 229 232 233 237 242 244 245 250 251 251 256 255 262 262 260 265 268 269 269 271 274 278 279 282 285 279 269 274 273 297 307 298 298 294 287 285 282 286 291 280
221 224 227 231 236 237 241 246 249 251 253 258 263 265 269 270 271 275 277 273 273 273 275 277 279 280 281 280 281 277 270 269 278 294 288 283 283 280 280 275 281 290 285
217 218 218 220 228 229 233 243 246 250 256 264 268 268 269 274 276 274 274 275 277 280 281 281 283 283 281 280 277 279 280 278 274 268 275 283 286 283 280 277 274 275 277
218 220 220 220 224 229 234 229 241 248 255 262 272 272 271 276 279 282 282 283 284 285 285 288 288 287 287 283 282 279 274 269 274 275 271 274 278 285 287 283 278 275 277